Location: Oberwangen
(47.4286°N, 8.9679°E)
Time: 10:22:47
(UTC+00:00)

Cosmos 1816 Rocket - Pass Details

Date: 20 October 2021
Orbit: 952 x 998 km, 82.9° (Epoch: 08 December)

Event Time Altitude Azimuth Distance (km) Brightness Sun altitude
Rises 20:08:49 0° 348° (NNW) 3,645 8.0 -37.3°
Reaches altitude 10° 20:11:20 10° 346° (NNW) 2,698 7.2 -37.7°
Enters shadow 20:14:35 33° 336° (NNW) 1,571 5.8 -38.2°
